AFL1743 UNNT-USRR

Flight info

Callsign AFL1743
Flight time N/A
Altitude 38000
Route DIMI1J DIMID R484 BA R104 KUPON R229 KARPO KARP1L
Aircraft A20N/M-V/N

Departure

Time 2026-05-01 14:28
Airport Novosibirsk Tolmachevo Airport (UNNT)

Arrival

Time N/A
Airport Surgut International Airport (USRR)
Time Latitude Longitude Altitude Speed Heading
2026-05-01 13:43 55.01018 82.66673 356 ft 0 kts 171°
2026-05-01 14:15 55.01029 82.66670 356 ft 2 kts 171°
2026-05-01 14:16 55.01043 82.66666 355 ft 2 kts 171°
2026-05-01 14:16 55.01058 82.66662 355 ft 1 kts 171°
2026-05-01 14:16 55.01064 82.66661 355 ft 0 kts 143°
2026-05-01 14:16 55.01069 82.66644 355 ft 2 kts 111°
2026-05-01 14:17 55.01076 82.66621 355 ft 2 kts 121°
2026-05-01 14:17 55.01083 82.66600 355 ft 1 kts 118°
2026-05-01 14:17 55.01089 82.66582 354 ft 2 kts 129°
2026-05-01 14:17 55.01100 82.66562 354 ft 2 kts 152°
2026-05-01 14:18 55.01111 82.66555 354 ft 0 kts 170°
2026-05-01 14:18 55.01117 82.66554 354 ft 0 kts 173°
2026-05-01 14:20 55.01099 82.66558 354 ft 4 kts 174°
2026-05-01 14:20 55.01060 82.66531 355 ft 8 kts 229°
2026-05-01 14:21 55.01032 82.66418 356 ft 11 kts 251°
2026-05-01 14:21 55.00988 82.66279 356 ft 14 kts 234°
2026-05-01 14:21 55.00959 82.66103 357 ft 16 kts 261°
2026-05-01 14:22 55.00920 82.65699 358 ft 17 kts 262°
2026-05-01 14:22 55.00898 82.65479 356 ft 19 kts 258°
2026-05-01 14:22 55.00886 82.65322 355 ft 8 kts 264°
2026-05-01 14:22 55.00882 82.65204 354 ft 11 kts 267°
2026-05-01 14:23 55.00871 82.65048 353 ft 13 kts 262°
2026-05-01 14:23 55.00886 82.64876 353 ft 14 kts 284°
2026-05-01 14:23 55.00911 82.64696 353 ft 15 kts 282°
2026-05-01 14:23 55.00935 82.64502 353 ft 16 kts 283°
2026-05-01 14:24 55.00963 82.64295 353 ft 17 kts 283°
2026-05-01 14:24 55.00991 82.64076 353 ft 18 kts 283°
2026-05-01 14:24 55.01016 82.64002 353 ft 0 kts 349°
2026-05-01 14:26 55.01019 82.64002 353 ft 5 kts 350°
2026-05-01 14:26 55.01144 82.63992 353 ft 6 kts 46°
2026-05-01 14:26 55.01150 82.64017 353 ft 0 kts 81°
2026-05-01 14:27 55.01170 82.64329 353 ft 60 kts 88°
2026-05-01 14:27 55.01260 82.65414 353 ft 120 kts 81°
2026-05-01 14:27 55.01422 82.67188 361 ft 169 kts 83°
2026-05-01 14:28 55.01829 82.71361 1169 ft 188 kts 83°
2026-05-01 14:28 55.02050 82.73708 1569 ft 200 kts 84°
2026-05-01 14:28 55.02267 82.76122 2086 ft 204 kts 83°
2026-05-01 14:28 55.02644 82.78495 2589 ft 209 kts 59°
2026-05-01 14:29 55.03789 82.80019 3031 ft 218 kts 15°
2026-05-01 14:29 55.05360 82.79932 3401 ft 239 kts 347°
2026-05-01 14:30 55.10579 82.77909 3984 ft 263 kts 350°
2026-05-01 14:30 55.12392 82.77316 3994 ft 266 kts 350°
2026-05-01 14:30 55.14212 82.76747 3996 ft 263 kts 350°
2026-05-01 14:31 55.17853 82.75634 4341 ft 274 kts 351°
2026-05-01 14:31 55.19720 82.75072 5206 ft 271 kts 351°
2026-05-01 14:31 55.21568 82.74514 5964 ft 271 kts 350°
2026-05-01 14:31 55.23435 82.73950 6329 ft 273 kts 350°
2026-05-01 14:32 55.25314 82.73381 6705 ft 274 kts 350°
2026-05-01 14:32 55.27195 82.72812 7081 ft 276 kts 350°
2026-05-01 14:32 55.29081 82.72239 7454 ft 277 kts 350°
2026-05-01 14:32 55.30973 82.71664 7828 ft 277 kts 350°
2026-05-01 14:33 55.32867 82.71089 8204 ft 279 kts 350°
2026-05-01 14:33 55.34764 82.70566 8577 ft 280 kts 353°
2026-05-01 14:33 55.36742 82.70300 8960 ft 282 kts 358°
2026-05-01 14:33 55.38681 82.70290 9333 ft 283 kts
2026-05-01 14:34 55.40670 82.70327 9713 ft 284 kts
2026-05-01 14:34 55.42637 82.70329 10087 ft 286 kts 360°
2026-05-01 14:34 55.44628 82.70324 10465 ft 287 kts 360°
2026-05-01 14:34 55.46627 82.70319 10842 ft 288 kts 360°
2026-05-01 14:35 55.48616 82.70313 11216 ft 289 kts 359°
2026-05-01 14:35 55.50648 82.70308 11596 ft 291 kts 360°
2026-05-01 14:35 55.52644 82.70303 11968 ft 292 kts 360°
2026-05-01 14:35 55.54691 82.70306 12348 ft 293 kts 360°
2026-05-01 14:36 55.56744 82.70305 12727 ft 295 kts 359°
2026-05-01 14:36 55.58796 82.70303 13103 ft 297 kts 360°
2026-05-01 14:36 55.60840 82.70306 13475 ft 299 kts 359°
2026-05-01 14:36 55.62939 82.70303 13855 ft 300 kts 360°
2026-05-01 14:37 55.65017 82.70306 14229 ft 302 kts 359°
2026-05-01 14:37 55.67137 82.70303 14609 ft 304 kts 359°
2026-05-01 14:37 55.69252 82.70306 14985 ft 306 kts 359°
2026-05-01 14:37 55.71379 82.70305 15361 ft 308 kts 359°
2026-05-01 14:38 55.73523 82.70306 15741 ft 312 kts 359°
2026-05-01 14:38 55.75724 82.70303 16120 ft 321 kts 359°
2026-05-01 14:38 55.78019 82.70303 16507 ft 329 kts 359°
2026-05-01 14:38 55.80304 82.70301 16881 ft 337 kts 359°
2026-05-01 14:39 55.82672 82.70299 17262 ft 344 kts 359°
2026-05-01 14:39 55.85128 82.70300 17647 ft 351 kts 359°
2026-05-01 14:39 55.87594 82.70300 18027 ft 358 kts 359°
2026-05-01 14:39 55.90076 82.70297 18401 ft 364 kts 359°
2026-05-01 14:40 55.92624 82.70298 18780 ft 370 kts 359°
2026-05-01 14:40 55.95273 82.70298 19168 ft 375 kts 359°
2026-05-01 14:40 55.97879 82.70296 19544 ft 380 kts 359°
2026-05-01 14:40 56.00535 82.70295 19922 ft 385 kts 359°
2026-05-01 14:41 56.03244 82.70291 20303 ft 390 kts 358°
2026-05-01 14:41 56.05962 82.69979 20680 ft 393 kts 351°
2026-05-01 14:41 56.08654 82.69039 21058 ft 396 kts 343°
2026-05-01 14:41 56.11276 82.67513 21439 ft 399 kts 339°
2026-05-01 14:42 56.13929 82.65740 21825 ft 402 kts 338°
2026-05-01 14:42 56.16542 82.63956 22203 ft 405 kts 338°
2026-05-01 14:42 56.19208 82.62138 22584 ft 408 kts 338°
2026-05-01 14:42 56.21882 82.60321 22963 ft 411 kts 338°
2026-05-01 14:43 56.24544 82.58515 23339 ft 414 kts 338°
2026-05-01 14:43 56.27256 82.56677 23720 ft 416 kts 338°
2026-05-01 14:43 56.29967 82.54839 24097 ft 418 kts 338°
2026-05-01 14:43 56.32667 82.53008 24472 ft 420 kts 338°
2026-05-01 14:44 56.35407 82.51150 24852 ft 421 kts 338°
2026-05-01 14:44 56.40892 82.47418 25606 ft 423 kts 338°
2026-05-01 14:44 56.43650 82.45536 25984 ft 424 kts 338°
2026-05-01 14:45 56.46385 82.43668 26358 ft 425 kts 338°
2026-05-01 14:45 56.51939 82.39859 27120 ft 425 kts 338°
2026-05-01 14:45 56.54690 82.37971 27494 ft 425 kts 338°
2026-05-01 14:46 56.57446 82.36076 27872 ft 424 kts 338°
2026-05-01 14:46 56.62912 82.32297 28624 ft 422 kts 336°
2026-05-01 14:46 56.65649 82.30394 29001 ft 420 kts 336°
2026-05-01 14:47 56.68366 82.28508 29379 ft 418 kts 336°
2026-05-01 14:47 56.71081 82.26623 29757 ft 416 kts 336°
2026-05-01 14:47 56.73759 82.24764 30131 ft 413 kts 337°
2026-05-01 14:48 56.79091 82.21059 30881 ft 407 kts 336°
2026-05-01 14:48 56.81697 82.19245 31251 ft 404 kts 336°
2026-05-01 14:48 56.86889 82.15629 32002 ft 396 kts 336°
2026-05-01 14:49 56.91930 82.12092 32743 ft 387 kts 336°
2026-05-01 14:49 56.96764 82.08171 33485 ft 375 kts 328°
2026-05-01 14:50 56.99675 82.04812 33836 ft 371 kts 321°
2026-05-01 14:50 57.04757 81.96252 34048 ft 375 kts 308°
2026-05-01 14:51 57.09623 81.84853 34308 ft 382 kts 305°
2026-05-01 14:52 57.12915 81.77059 34485 ft 387 kts 306°
2026-05-01 14:52 57.14583 81.73119 34598 ft 388 kts 306°
2026-05-01 14:52 57.17886 81.65276 34826 ft 390 kts 306°
2026-05-01 14:53 57.19540 81.61334 35125 ft 386 kts 306°
2026-05-01 14:53 57.22837 81.53450 35208 ft 392 kts 306°
2026-05-01 14:54 57.26174 81.45440 35326 ft 396 kts 306°
2026-05-01 14:54 57.27823 81.41473 35602 ft 392 kts 306°
2026-05-01 14:54 57.29477 81.37485 35623 ft 395 kts 306°
2026-05-01 14:55 57.32842 81.29337 35702 ft 400 kts 304°
2026-05-01 14:55 57.34530 81.25239 35940 ft 396 kts 304°
2026-05-01 14:55 57.36171 81.21247 36022 ft 397 kts 305°
2026-05-01 14:56 57.39556 81.13003 36045 ft 403 kts 305°
2026-05-01 14:56 57.42946 81.04726 36147 ft 406 kts 304°
2026-05-01 14:57 57.46353 80.96389 36438 ft 404 kts 304°
2026-05-01 14:57 57.51468 80.83799 36406 ft 412 kts 304°
2026-05-01 14:58 57.54903 80.75311 36711 ft 408 kts 304°
2026-05-01 14:58 57.58329 80.66812 36695 ft 414 kts 304°
2026-05-01 14:59 57.61774 80.58242 36970 ft 411 kts 304°
2026-05-01 14:59 57.65218 80.49636 36915 ft 417 kts 304°
2026-05-01 15:00 57.68664 80.41004 37151 ft 414 kts 304°
2026-05-01 15:00 57.70385 80.36683 37139 ft 417 kts 304°
2026-05-01 15:01 57.73855 80.27933 37198 ft 418 kts 303°
2026-05-01 15:01 57.75594 80.23537 37343 ft 417 kts 303°
2026-05-01 15:01 57.77323 80.19157 37304 ft 420 kts 303°
2026-05-01 15:02 57.80825 80.10274 37253 ft 425 kts 303°
2026-05-01 15:02 57.84303 80.01434 37549 ft 420 kts 303°
2026-05-01 15:03 57.87792 79.92530 37460 ft 426 kts 303°
2026-05-01 15:03 57.89528 79.88089 37644 ft 421 kts 303°
2026-05-01 15:03 57.91272 79.83624 37715 ft 422 kts 303°
2026-05-01 15:04 57.94732 79.74725 37611 ft 427 kts 303°
2026-05-01 15:04 57.98193 79.65734 37952 ft 420 kts 303°
2026-05-01 15:05 58.01603 79.56731 37973 ft 423 kts 303°
2026-05-01 15:05 58.05015 79.47696 37964 ft 425 kts 303°
2026-05-01 15:06 58.08463 79.38551 37949 ft 428 kts 303°
2026-05-01 15:06 58.11919 79.29365 37936 ft 430 kts 302°
2026-05-01 15:07 58.15402 79.20113 37932 ft 432 kts 302°
2026-05-01 15:07 58.18891 79.10786 37929 ft 433 kts 302°
2026-05-01 15:08 58.22353 79.01485 37927 ft 434 kts 301°
2026-05-01 15:08 58.25840 78.92069 37927 ft 435 kts 301°
2026-05-01 15:09 58.29300 78.82670 37927 ft 436 kts 301°
2026-05-01 15:09 58.32760 78.73239 37930 ft 437 kts 301°
2026-05-01 15:10 58.36232 78.63744 37928 ft 438 kts 301°
2026-05-01 15:10 58.41473 78.49395 37927 ft 438 kts 301°
2026-05-01 15:11 58.46669 78.35043 37928 ft 439 kts 301°
2026-05-01 15:12 58.50126 78.25419 37927 ft 439 kts 300°
2026-05-01 15:12 58.55293 78.10961 37926 ft 440 kts 300°
2026-05-01 15:14 58.63909 77.86689 37926 ft 442 kts 300°
2026-05-01 15:14 58.69056 77.72073 37927 ft 442 kts 300°
2026-05-01 15:15 58.75927 77.52421 37928 ft 443 kts 300°
2026-05-01 15:16 58.82775 77.32668 37930 ft 443 kts 299°
2026-05-01 15:18 58.91267 77.07905 37926 ft 444 kts 300°
2026-05-01 15:19 58.98091 76.87859 37923 ft 446 kts 299°
2026-05-01 15:19 59.03200 76.72732 37925 ft 448 kts 299°
2026-05-01 15:20 59.08353 76.57469 37927 ft 452 kts 301°
2026-05-01 15:21 59.12171 76.47877 37926 ft 456 kts 308°
2026-05-01 15:21 59.16610 76.38950 37928 ft 460 kts 313°
2026-05-01 15:22 59.23590 76.26054 37928 ft 461 kts 313°
2026-05-01 15:22 59.28222 76.17432 37928 ft 461 kts 313°
2026-05-01 15:23 59.32880 76.08721 37927 ft 462 kts 313°
2026-05-01 15:23 59.37511 76.00023 37928 ft 463 kts 312°
2026-05-01 15:24 59.42196 75.91182 37927 ft 463 kts 312°
2026-05-01 15:24 59.46858 75.82345 37927 ft 464 kts 313°
2026-05-01 15:25 59.51498 75.73517 37927 ft 464 kts 313°
2026-05-01 15:25 59.56144 75.64645 37928 ft 465 kts 313°
2026-05-01 15:26 59.60786 75.55749 37927 ft 465 kts 313°
2026-05-01 15:26 59.65363 75.46938 37928 ft 465 kts 313°
2026-05-01 15:27 59.70002 75.37979 37925 ft 466 kts 313°
2026-05-01 15:27 59.72394 75.33657 37779 ft 467 kts 315°
2026-05-01 15:28 59.77564 75.25778 36549 ft 480 kts 323°
2026-05-01 15:28 59.80390 75.22238 35925 ft 484 kts 327°
2026-05-01 15:28 59.83326 75.18935 35297 ft 485 kts 328°
2026-05-01 15:29 59.89235 75.12540 34049 ft 487 kts 328°
2026-05-01 15:29 59.92216 75.09309 33418 ft 485 kts 328°
2026-05-01 15:29 59.98048 75.02939 32159 ft 471 kts 328°
2026-05-01 15:30 60.03671 74.96746 30906 ft 456 kts 328°
2026-05-01 15:31 60.14505 74.84750 28379 ft 431 kts 328°
2026-05-01 15:31 60.19692 74.78982 27121 ft 421 kts 328°
2026-05-01 15:32 60.23926 74.74246 26071 ft 413 kts 328°
2026-05-01 15:32 60.28861 74.68700 24821 ft 404 kts 328°
2026-05-01 15:33 60.36084 74.60546 22943 ft 392 kts 328°
2026-05-01 15:34 60.43109 74.52580 21067 ft 385 kts 328°